[[{"header":{"parameterUnit":"m.s-1","parameterCategory":1,"la1":30.2991,"la2":30.254,"lo1":-89.0895,"lo2":-89.0444,"dy":0.0017,"dx":0.0017,"nx":28,"ny":28,"refTime":"2024-06-08T09:00:00:Z","depth":0,"parameterNumber":2,"parameterNumberName":"U-component_of_WINDS"},"data":[0,0,0,0,0,0,0,0,0,0,0,0,0,0,0,0,0,0,0,0,0,0,0,0,0,0,0,0,0,0,0,0,0,0,0,0,0,0,0,0,0,0,0,0,0,0,0,0,0,0,0,0,0,0,0,0,0,0,1.355,1.3552,0,1.3716,1.3718,1.372,1.3751,1.375,1.3748,1.3747,1.3917,1.3923,1.3929,0,0,0,0,0,0,0,0,0,0,0,0,0,1.3258,1.3264,1.355,1.3552,1.3554,1.3716,1.3718,1.3721,1.3751,1.375,1.3748,1.3746,1.3916,1.3922,1.3929,0,0,0,0,0,0,0,0,0,0,0,0,0,1.3401,1.3265,1.355,1.3589,1.3594,1.3716,1.3719,1.3721,1.3752,1.375,1.3748,1.3746,1.3913,1.3922,1.393,1.4024,0,0,1.3957,1.3961,0,0,0,0,0,0,0,0,1.3393,1.3412,1.3581,1.3587,1.3593,1.3711,1.3678,1.3823,1.3752,1.3692,1.3747,1.3745,1.385,1.3864,1.39,1.4032,1.404,1.3958,1.3963,1.3967,1.3969,0,0,0,0,0,0,0,1.3383,1.3405,1.3616,1.3584,1.3591,1.3598,1.3616,1.3706,1.378,1.3697,1.37,1.3719,1.3853,1.3891,1.3904,1.4042,1.3957,1.3965,1.397,1.3974,1.426,1.4262,0,0,0,0,0,0,1.3366,1.3396,1.3611,1.3621,1.3486,1.3605,1.3625,1.3675,1.378,1.3794,1.372,1.372,1.3877,1.3894,1.391,1.4027,1.3967,1.3975,1.398,1.4257,1.426,1.4263,0,0,0,0,0,0,1.336,1.3385,1.3604,1.3509,1.3538,1.3612,1.3668,1.3679,1.3718,1.3797,1.3811,1.3746,1.3876,1.3898,1.3996,1.4033,1.3979,1.3986,1.4255,1.4258,1.4262,1.4261,0,0,0,0,0,0,1.3351,1.3382,1.3419,1.351,1.3543,1.3687,1.367,1.3684,1.3732,1.3733,1.3825,1.3838,1.3877,1.3982,1.4004,1.4044,1.3993,1.4252,1.4256,1.4261,1.4258,1.4264,1.427,0,0,0,0,0,1.3341,1.3413,1.3421,1.3447,1.359,1.3689,1.3708,1.3751,1.3735,1.3773,1.3824,1.3835,1.4025,1.3992,1.4017,1.406,1.4249,1.4255,1.426,1.4256,1.4263,1.4269,0,0,0,0,0,0,1.3324,1.3425,1.3436,1.3539,1.3605,1.3694,1.3743,1.3757,1.3829,1.3827,1.3877,1.3898,1.3993,1.4036,1.3997,1.4156,1.4136,1.4147,1.4124,1.4132,1.4138,1.4125,1.4,0,0,0,0,0,1.3333,1.3405,1.3489,1.3572,1.3605,1.3668,1.3712,1.374,1.381,1.3839,1.3897,1.3965,1.404,1.4089,1.4162,1.4265,1.4285,1.4306,1.4312,1.4316,1.4325,1.4382,1.4392,1.4281,1.4281,1.428,0,0,1.3351,1.3415,1.3457,1.357,1.3625,1.3698,1.3691,1.3769,1.3824,1.385,1.3946,1.3991,1.407,1.4171,1.4218,1.421,1.436,1.4323,1.4326,1.4332,1.4388,1.4399,1.4408,1.4284,1.4284,1.4283,0,0,1.3422,1.3477,1.3553,1.3607,1.369,1.3731,1.3749,1.3836,1.3866,1.3963,1.3985,1.405,1.4179,1.4234,1.4279,1.437,1.4383,1.4392,1.4422,1.4477,1.4486,1.4494,1.4526,1.4537,1.4401,1.4401,1.4401,0,1.3434,1.3545,1.3589,1.3666,1.3715,1.3742,1.3819,1.3869,1.3972,1.4005,1.3994,1.4156,1.4211,1.4324,1.4346,1.4382,1.4404,1.4382,1.4481,1.449,1.4498,1.4529,1.4541,1.4401,1.4401,1.4401,1.4401,0,1.3556,1.3633,1.3683,1.3781,1.3836,1.3912,1.3967,1.4017,1.4039,1.4082,1.418,1.4247,1.4334,1.4363,1.4386,1.448,1.4472,1.4471,1.4452,1.4508,1.4538,1.4551,1.4402,1.4402,1.4402,1.4402,0,0,1.3622,1.3742,1.376,1.3805,1.3897,1.3957,1.4034,1.412,1.4161,1.423,1.4296,1.4404,1.4403,1.4454,1.4483,1.4531,1.4598,1.4524,1.4527,1.4535,1.4705,1.4706,1.4719,1.4607,1.461,1.4612,1.4699,0,1.3703,1.3842,1.3883,1.3999,1.407,1.4097,1.4164,1.4228,1.4269,1.4335,1.4381,1.4456,1.445,1.4481,1.4529,1.458,1.4633,1.4574,1.4669,1.4672,1.4648,1.4735,1.4736,1.4815,1.4711,1.4713,1.4714,0,1.3817,1.3888,1.4011,1.4094,1.4125,1.4185,1.4266,1.4329,1.4402,1.4428,1.4485,1.451,1.4591,1.4567,1.4679,1.4638,1.4679,1.471,1.4714,1.4724,1.4696,1.4747,1.4841,1.4853,1.4733,1.4732,1.473,0,1.3852,1.3978,1.4068,1.4106,1.4205,1.4246,1.4289,1.436,1.4408,1.4479,1.4511,1.459,1.4634,1.4694,1.474,1.4718,1.4848,1.4828,1.4873,1.4871,1.4899,1.4897,1.5,1.4925,1.4925,1.4925,1.4925,0,1.3939,1.4013,1.4085,1.4141,1.4224,1.4271,1.4353,1.4397,1.446,1.4524,1.4552,1.4611,1.4668,1.4735,1.4771,1.4858,1.4878,1.4901,1.491,1.4899,1.4896,1.4927,1.4922,1.4928,1.4927,1.4927,1.4926,0,1.3992,1.4044,1.4144,1.4229,1.4252,1.431,1.4383,1.4437,1.4479,1.456,1.4582,1.4648,1.4728,1.4779,1.4882,1.4906,1.5002,1.5009,1.4977,1.4981,1.5022,1.5018,1.5149,1.5169,1.5081,1.5082,1.5082,0,1.4044,1.4102,1.4193,1.4238,1.4282,1.4354,1.4403,1.4451,1.4501,1.4588,1.4632,1.4714,1.4782,1.4909,1.4966,1.5044,1.5053,1.5094,1.5065,1.5052,1.5054,1.505,1.5056,1.5099,1.5099,1.51,1.5101,0,1.4131,1.4153,1.4224,1.4303,1.4361,1.4425,1.449,1.4525,1.4584,1.4639,1.4721,1.4774,1.4878,1.4959,1.5042,1.5086,1.5104,1.5109,1.5123,1.5113,1.5092,1.5103,1.499,1.5106,1.5105,1.5105,1.5105,1.5104,1.4186,1.4238,1.431,1.4387,1.444,1.45,1.4555,1.4604,1.4673,1.4761,1.4785,1.4871,1.4942,1.5055,1.5101,1.5169,1.5164,1.5185,1.519,1.5195,1.5195,1.5081,1.5184,1.5184,1.5184,1.5184,1.5184,0,1.4273,1.4321,1.4391,1.448,1.4541,1.4551,1.4623,1.4673,1.4748,1.4812,1.4878,1.4973,1.5051,1.5114,1.5195,1.5237,1.5247,1.5256,1.5254,1.5264,1.5195,1.5174,1.5247,1.5247,1.5247,1.5247,1.5247,1.5247,1.4326,1.4415,1.4446,1.4561,1.4608,1.4692,1.4732,1.4787,1.4839,1.4943,1.5008,1.5048,1.5112,1.5197,1.527,1.5286,1.5315,1.5323,1.5341,1.5276,1.5269,1.5262,1.5243,1.5329,1.5329,1.5404,1.5405,1.5405]},{"header":{"parameterUnit":"m.s-1","parameterCategory":1,"la1":30.2991,"la2":30.254,"lo1":-89.0895,"lo2":-89.0444,"dy":0.0017,"dx":0.0017,"nx":28,"ny":28,"refTime":"2024-06-08T09:00:00:Z","depth":0,"parameterNumber":3,"parameterNumberName":"V-component_of_WINDS"},"data":[0,0,0,0,0,0,0,0,0,0,0,0,0,0,0,0,0,0,0,0,0,0,0,0,0,0,0,0,0,0,0,0,0,0,0,0,0,0,0,0,0,0,0,0,0,0,0,0,0,0,0,0,0,0,0,0,0,0,4.1555,4.1556,0,4.1576,4.1576,4.1577,4.1493,4.149,4.1488,4.1485,4.1504,4.1507,4.151,0,0,0,0,0,0,0,0,0,0,0,0,0,4.144,4.1443,4.1555,4.1556,4.1556,4.1576,4.1576,4.1577,4.1493,4.149,4.1487,4.1484,4.1504,4.1507,4.151,0,0,0,0,0,0,0,0,0,0,0,0,0,4.1479,4.1444,4.1555,4.1517,4.1513,4.1576,4.1576,4.1577,4.1494,4.149,4.1486,4.1483,4.1502,4.1507,4.1511,4.1611,0,0,4.1524,4.1525,0,0,0,0,0,0,0,0,4.1477,4.1483,4.1522,4.152,4.1516,4.1528,4.1543,4.1588,4.1495,4.1501,4.1485,4.1481,4.1515,4.1518,4.153,4.1612,4.1612,4.1524,4.1526,4.1528,4.1529,0,0,0,0,0,0,0,4.1474,4.1482,4.1563,4.1523,4.1519,4.1497,4.1499,4.1551,4.1529,4.15,4.1494,4.1498,4.1513,4.1526,4.153,4.1613,4.1524,4.1528,4.153,4.1532,4.1776,4.178,0,0,0,0,0,0,4.1477,4.148,4.1563,4.1564,4.1487,4.1502,4.1504,4.1528,4.1528,4.1524,4.1501,4.1494,4.1521,4.1525,4.153,4.1647,4.1528,4.1532,4.1535,4.1772,4.1777,4.1781,0,0,0,0,0,0,4.1475,4.1485,4.1562,4.152,4.1529,4.1508,4.1536,4.153,4.1544,4.1528,4.1524,4.1519,4.1518,4.1524,4.1591,4.1646,4.1534,4.1538,4.1768,4.1774,4.1779,4.1882,0,0,0,0,0,0,4.1472,4.1485,4.1524,4.1522,4.1531,4.1624,4.1539,4.1533,4.1551,4.1542,4.1544,4.1541,4.1516,4.1585,4.1595,4.165,4.1541,4.1763,4.177,4.1777,4.1873,4.189,4.1905,0,0,0,0,0,4.1468,4.1551,4.1526,4.1537,4.1579,4.1627,4.1632,4.1602,4.1556,4.1594,4.1584,4.1541,4.1639,4.1593,4.1604,4.166,4.1759,4.1768,4.1777,4.1866,4.1887,4.1905,0,0,0,0,0,0,4.156,4.1551,4.1522,4.1608,4.1619,4.1613,4.1661,4.1626,4.165,4.164,4.1601,4.1602,4.1676,4.1674,4.1624,4.1757,4.1691,4.1702,4.1755,4.1775,4.179,4.1789,4.1545,0,0,0,0,0,4.159,4.1631,4.162,4.1697,4.1704,4.1681,4.1701,4.1677,4.1687,4.1691,4.1686,4.1696,4.1729,4.1752,4.1781,4.1872,4.1871,4.1916,4.1932,4.1945,4.1956,4.2003,4.2023,4.1811,4.1811,4.181,0,0,4.1653,4.1653,4.1681,4.1715,4.1721,4.1763,4.1686,4.1734,4.1764,4.1698,4.1761,4.1757,4.1766,4.1846,4.1881,4.1847,4.2014,4.1957,4.1967,4.1971,4.2014,4.2035,4.2052,4.1817,4.1816,4.1815,0,0,4.1789,4.1793,4.1857,4.1865,4.1874,4.1859,4.1874,4.1873,4.1869,4.1931,4.1882,4.1917,4.1975,4.1983,4.1995,4.2132,4.2093,4.2143,4.2226,4.2273,4.2289,4.2304,4.2353,4.2371,4.2153,4.2154,4.2154,0,4.1866,4.1928,4.1894,4.1946,4.1962,4.1903,4.1967,4.1975,4.1994,4.2006,4.1968,4.2039,4.2041,4.2121,4.2155,4.2166,4.2182,4.2143,4.229,4.2304,4.2317,4.2364,4.2382,4.216,4.2159,4.2158,4.2158,0,4.2022,4.2066,4.2116,4.2136,4.2157,4.2215,4.2188,4.2214,4.2187,4.2175,4.2239,4.2239,4.2267,4.2284,4.2259,4.2361,4.234,4.2297,4.223,4.2344,4.2387,4.2404,4.2168,4.2166,4.2164,4.2163,0,0,4.2218,4.2217,4.2237,4.2244,4.225,4.2283,4.2337,4.2365,4.2387,4.2401,4.2445,4.2495,4.2455,4.2468,4.2443,4.2484,4.2592,4.2435,4.2435,4.2464,4.2704,4.2737,4.2758,4.2566,4.2569,4.2572,4.2703,0,4.2351,4.2444,4.2415,4.2508,4.2548,4.2492,4.2539,4.2547,4.2537,4.2568,4.2556,4.2592,4.2536,4.2544,4.2582,4.2571,4.264,4.2561,4.2606,4.2608,4.2606,4.278,4.2815,4.2939,4.272,4.2723,4.2725,0,4.252,4.2541,4.2639,4.2637,4.2653,4.2696,4.2718,4.2749,4.2756,4.2746,4.276,4.2726,4.2777,4.271,4.278,4.2727,4.2743,4.2741,4.2745,4.2748,4.2674,4.2788,4.2978,4.2997,4.2751,4.2749,4.2747,0,4.2653,4.2706,4.2771,4.278,4.2779,4.281,4.2811,4.2815,4.2833,4.2853,4.2864,4.2889,4.2903,4.2922,4.2895,4.2849,4.2969,4.29,4.2962,4.2963,4.299,4.2989,4.3186,4.3,4.3,4.3,4.2999,0,4.2806,4.2868,4.2831,4.2871,4.2938,4.2903,4.297,4.2965,4.2968,4.3006,4.2958,4.2994,4.2956,4.2988,4.2967,4.3028,4.3034,4.3027,4.3021,4.3032,4.3033,4.3042,4.3033,4.3005,4.3004,4.3003,4.3002,0,4.2966,4.2944,4.3011,4.3005,4.3005,4.3055,4.3049,4.3085,4.3071,4.3119,4.3128,4.3106,4.3141,4.3115,4.315,4.3136,4.3216,4.3198,4.3214,4.3209,4.3273,4.3267,4.3483,4.3509,4.3307,4.3309,4.3311,0,4.3065,4.3112,4.311,4.3132,4.3136,4.3172,4.319,4.3156,4.3177,4.3188,4.3223,4.3254,4.3277,4.3336,4.3323,4.3349,4.3331,4.3404,4.3334,4.3344,4.3332,4.333,4.3334,4.3419,4.3421,4.3423,4.3425,0,4.3244,4.323,4.3258,4.3283,4.3306,4.3324,4.3338,4.3358,4.3323,4.3349,4.3384,4.3403,4.3438,4.3469,4.349,4.349,4.3452,4.3447,4.3462,4.3474,4.3482,4.3479,4.3253,4.3442,4.344,4.3439,4.3438,4.3437,4.3376,4.3415,4.3419,4.3452,4.3459,4.3472,4.3506,4.3496,4.3525,4.3552,4.3529,4.3572,4.3576,4.3601,4.3606,4.3638,4.3607,4.363,4.3636,4.3642,4.3651,4.3477,4.3641,4.3641,4.364,4.364,4.3639,0,4.3552,4.3552,4.3583,4.3603,4.3629,4.359,4.3603,4.3627,4.3665,4.3673,4.3696,4.3737,4.3767,4.3755,4.3781,4.3809,4.3792,4.3817,4.3815,4.3816,4.3677,4.3661,4.3831,4.3831,4.3831,4.3831,4.383,4.383,4.3647,4.3709,4.3696,4.3761,4.376,4.3801,4.3812,4.3824,4.383,4.3877,4.3902,4.3894,4.3894,4.3919,4.3945,4.394,4.3952,4.3984,4.3974,4.3844,4.3826,4.3808,4.3792,4.3987,4.3987,4.4109,4.4111,4.4111]}]]